Location: Hardenberg
(52.5670°N, 6.6170°E)
Time: 20:38:36
(UTC+02:00)

ISS - Pass Details

Date: 17 May 2021
Orbit: 417 x 422 km, 51.6° (Epoch: 12 June)

Event Time Altitude Azimuth Distance (km) Brightness Sun altitude
Rises 23:39:17 0° 253° (WSW) 2,363 0.2 -14.0°
Reaches altitude 10° 23:41:23 10° 251° (WSW) 1,501 -0.9 -14.1°
Maximum altitude 23:44:44 66° 169° (SSE) 462 -3.9 -14.4°
Drops below altitude 10° 23:48:05 10° 86° (E) 1,507 -1.2 -14.6°
Enters shadow 23:49:54 - 84° (E) 2,251 -0.2 -14.7°
